North Highlands, CA

4:21 PM PST on February 06, 2016 (GMT -0800)
McClellan

Weather History for KMCC - December, 2013

Change the Weather History Date:

Wednesday, December 11, 2013

  Actual Average (KMHR) Record (KMHR)
Temperature  
Mean Temperature 40 °F -  
Max Temperature 53 °F 52 °F 64 °F (1996)
Min Temperature 26 °F 38 °F 26 °F (2013)
Degree Days  
Heating Degree Days 26    
Moisture  
Dew Point 28 °F    
Average Humidity 68    
Maximum Humidity 93    
Minimum Humidity 35    
Precipitation  
Precipitation 0.00 in - - ()
Sea Level Pressure  
Sea Level Pressure 30.26 in    
Wind  
Wind Speed 2 mph (NNW)    
Max Wind Speed 5 mph    
Max Gust Speed -    
Visibility 9 miles    
Events      
Averages and records for this station are not official NWS values.
T = Trace of Precipitation, MM = Missing Value Source: NWS Daily Summary

Daily Weather History Graph

Daily Weather History Graph

Search for Another Location

Airport or City:

Trip Planner

Search our weather history database for the weather conditions in past years. The results will help you decide how hot, cold, wet, or windy it might be!

Date:

Astronomy

Dec. 11, 2013 Rise Set
Actual Time 7:13 AM PST 4:44 PM PST
Civil Twilight 6:43 AM PST 5:14 PM PST
Nautical Twilight 6:10 AM PST 5:47 PM PST
Astronomical Twilight 5:38 AM PST 6:19 PM PST
Moon 1:18 PM PST (12/11) 1:43 AM PST (12/11)
Length of Visible Light 10h 30m
Length of Day
9h 30m
Waxing Gibbous, 72% of the Moon is Illuminated
Dec 11
Waxing Gibbous
Dec 17
Full
Dec 25
Last Quarter
Jan 1
New
Jan 7
First Quarter

Hourly Weather History & Observations

Time (PST) Temp. Windchill Dew Point Humidity Pressure Visibility Wind Dir Wind Speed Gust Speed Precip Events Conditions
12:10 AM 35.6 °F 32.8 °F 28.4 °F 75% 30.26 in 10.0 mi SSE 3.5 mph - N/A   Clear
12:30 AM 35.6 °F - 28.4 °F 75% 30.26 in 10.0 mi Calm Calm - N/A   Clear
12:50 AM 35.6 °F - 28.4 °F 75% 30.26 in 10.0 mi Calm Calm - N/A   Clear
1:10 AM 32.0 °F 28.7 °F 26.6 °F 80% 30.26 in 10.0 mi ENE 3.5 mph - N/A   Clear
1:30 AM 32.0 °F 28.7 °F 26.6 °F 80% 30.26 in 10.0 mi East 3.5 mph - N/A   Clear
1:50 AM 35.6 °F 32.8 °F 28.4 °F 75% 30.26 in 10.0 mi ENE 3.5 mph - N/A   Clear
2:10 AM 32.0 °F 28.7 °F 28.4 °F 87% 30.26 in 9.0 mi NE 3.5 mph - N/A   Clear
2:30 AM 32.0 °F - 26.6 °F 80% 30.26 in 9.0 mi Calm Calm - N/A   Clear
2:50 AM 32.0 °F - 28.4 °F 87% 30.26 in 9.0 mi Calm Calm - N/A   Clear
3:10 AM 32.0 °F - 28.4 °F 87% 30.26 in 9.0 mi Calm Calm - N/A   Clear
3:30 AM 32.0 °F - 26.6 °F 80% 30.27 in 8.0 mi Calm Calm - N/A   Clear
3:50 AM 32.0 °F - 26.6 °F 80% 30.26 in 8.0 mi Calm Calm - N/A   Clear
4:10 AM 30.2 °F - 26.6 °F 86% 30.26 in 8.0 mi Calm Calm - N/A   Clear
4:30 AM 30.2 °F - 26.6 °F 86% 30.26 in 8.0 mi Calm Calm - N/A   Clear
4:50 AM 28.4 °F - 26.6 °F 93% 30.25 in 7.0 mi Calm Calm - N/A   Clear
5:10 AM 28.4 °F 24.6 °F 26.6 °F 93% 30.25 in 7.0 mi NW 3.5 mph - N/A   Clear
5:30 AM 28.4 °F - 26.6 °F 93% 30.25 in 7.0 mi Calm Calm - N/A   Clear
5:50 AM 28.4 °F 23.3 °F 26.6 °F 93% 30.26 in 7.0 mi WNW 4.6 mph - N/A   Clear
6:10 AM 26.6 °F 21.2 °F 24.8 °F 93% 30.26 in 7.0 mi NW 4.6 mph - N/A   Clear
6:30 AM 26.6 °F 22.6 °F 24.8 °F 93% 30.27 in 8.0 mi North 3.5 mph - N/A   Clear
6:50 AM 28.4 °F 23.3 °F 26.6 °F 93% 30.27 in 10.0 mi NNE 4.6 mph - N/A   Unknown
7:10 AM 28.4 °F - 26.6 °F 93% 30.28 in 8.0 mi Calm Calm - N/A   Clear
7:30 AM 28.4 °F - 26.6 °F 93% 30.28 in 8.0 mi Calm Calm - N/A   Clear
7:50 AM 28.4 °F - 26.6 °F 93% 30.28 in 8.0 mi Calm Calm - N/A   Clear
8:10 AM 30.2 °F - 26.6 °F 86% 30.28 in 7.0 mi Calm Calm - N/A   Clear
8:30 AM 32.0 °F - 28.4 °F 87% 30.29 in 8.0 mi Calm Calm - N/A   Clear
8:50 AM 33.8 °F - 30.2 °F 87% 30.30 in 9.0 mi Calm Calm - N/A   Clear
9:10 AM 35.6 °F - 32.0 °F 87% 30.30 in 8.0 mi Calm Calm - N/A   Clear
9:30 AM 37.4 °F - 32.0 °F 81% 30.30 in 9.0 mi Calm Calm - N/A   Clear
9:50 AM 39.2 °F - 32.0 °F 75% 30.31 in 10.0 mi Calm Calm - N/A   Clear
10:10 AM 41.0 °F - 32.0 °F 70% 30.30 in 10.0 mi Calm Calm - N/A   Clear
10:30 AM 44.6 °F - 32.0 °F 61% 30.30 in 10.0 mi Calm Calm - N/A   Clear
10:50 AM 44.6 °F 43.1 °F 32.0 °F 61% 30.29 in 10.0 mi WSW 3.5 mph - N/A   Clear
11:10 AM 46.4 °F 45.2 °F 32.0 °F 57% 30.29 in 10.0 mi NW 3.5 mph - N/A   Clear
11:30 AM 46.4 °F 45.2 °F 32.0 °F 57% 30.28 in 10.0 mi NW 3.5 mph - N/A   Clear
11:50 AM 48.2 °F - 30.2 °F 50% 30.27 in 10.0 mi NNW 3.5 mph - N/A   Clear
12:10 PM 50.0 °F - 32.0 °F 50% 30.27 in 9.0 mi West 4.6 mph - N/A   Clear
12:35 PM 50.0 °F - 28.4 °F 43% 30.26 in 10.0 mi WNW 4.6 mph - N/A   Clear
12:55 PM 50.0 °F - 28.4 °F 43% 30.25 in 10.0 mi Calm Calm - N/A   Clear
1:15 PM 50.0 °F - 26.6 °F 40% 30.25 in 10.0 mi Calm Calm - N/A   Clear
1:35 PM 51.8 °F - 28.4 °F 41% 30.24 in 10.0 mi NW 3.5 mph - N/A   Clear
1:55 PM 53.6 °F - 28.4 °F 38% 30.23 in 10.0 mi Calm Calm - N/A   Clear
2:15 PM 53.6 °F - 26.6 °F 35% 30.23 in 10.0 mi Calm Calm - N/A   Clear
2:35 PM 53.6 °F - 26.6 °F 35% 30.23 in 10.0 mi North 3.5 mph - N/A   Clear
2:55 PM 53.6 °F - 26.6 °F 35% 30.23 in 10.0 mi Calm Calm - N/A   Clear
3:15 PM 53.6 °F - 26.6 °F 35% 30.23 in 10.0 mi Calm Calm - N/A   Clear
3:35 PM 53.6 °F - 26.6 °F 35% 30.22 in 10.0 mi Calm Calm - N/A   Clear
3:55 PM 53.6 °F - 26.6 °F 35% 30.22 in 10.0 mi Calm Calm - N/A   Clear
4:15 PM 53.6 °F - 26.6 °F 35% 30.22 in 10.0 mi Calm Calm - N/A   Clear
4:35 PM 51.8 °F - 28.4 °F 41% 30.22 in 10.0 mi NW 3.5 mph - N/A   Unknown
4:55 PM 48.2 °F - 28.4 °F 46% 30.22 in 10.0 mi NW 4.6 mph - N/A   Unknown
5:15 PM 46.4 °F 45.2 °F 26.6 °F 46% 30.22 in 10.0 mi NW 3.5 mph - N/A   Clear
5:35 PM 44.6 °F - 26.6 °F 49% 30.23 in 10.0 mi Calm Calm - N/A   Clear
5:55 PM 41.0 °F 38.0 °F 26.6 °F 57% 30.23 in 10.0 mi North 4.6 mph - N/A   Clear
6:15 PM 41.0 °F - 26.6 °F 57% 30.23 in 10.0 mi Calm Calm - N/A   Clear
6:35 PM 41.0 °F 38.0 °F 26.6 °F 57% 30.23 in 10.0 mi North 4.6 mph - N/A   Clear
6:55 PM 39.2 °F 37.0 °F 28.4 °F 65% 30.23 in 10.0 mi North 3.5 mph - N/A   Clear
7:15 PM 39.2 °F 35.9 °F 28.4 °F 65% 30.24 in 10.0 mi NNE 4.6 mph - N/A   Clear
7:35 PM 37.4 °F 34.9 °F 26.6 °F 65% 30.24 in 10.0 mi NE 3.5 mph - N/A   Clear
7:55 PM 37.4 °F 33.8 °F 26.6 °F 65% 30.24 in 10.0 mi NNE 4.6 mph - N/A   Clear
8:15 PM 37.4 °F 34.9 °F 28.4 °F 70% 30.24 in 10.0 mi NE 3.5 mph - N/A   Clear
8:35 PM 37.4 °F - 26.6 °F 65% 30.24 in 10.0 mi Calm Calm - N/A   Clear
8:55 PM 37.4 °F - 28.4 °F 70% 30.24 in 10.0 mi Calm Calm - N/A   Clear
9:15 PM 37.4 °F - 26.6 °F 65% 30.24 in 10.0 mi Calm Calm - N/A   Clear
9:35 PM 35.6 °F 32.8 °F 28.4 °F 75% 30.25 in 10.0 mi WNW 3.5 mph - N/A   Clear
9:55 PM 33.8 °F - 28.4 °F 81% 30.25 in 9.0 mi Calm Calm - N/A   Clear
10:15 PM 35.6 °F - 28.4 °F 75% 30.25 in 9.0 mi Calm Calm - N/A   Clear
10:35 PM 33.8 °F - 26.6 °F 75% 30.25 in 7.0 mi Calm Calm - N/A   Clear
10:55 PM 35.6 °F - 28.4 °F 75% 30.26 in 8.0 mi Calm Calm - N/A   Clear
11:15 PM 35.6 °F - 28.4 °F 75% 30.27 in 9.0 mi Calm Calm - N/A   Clear
11:35 PM 32.0 °F - 26.6 °F 80% 30.27 in 7.0 mi Calm Calm - N/A   Clear
11:55 PM 32.0 °F - 26.6 °F 80% 30.27 in 7.0 mi Calm Calm - N/A   Clear